Weather History for KHKY - December, 2012

Change the Weather History Date:

Wednesday, December 5, 2012

  Actual Average Record
Temperature  
Mean Temperature 54 °F -  
Max Temperature 62 °F 54 °F 71 °F (1956)
Min Temperature 43 °F 31 °F 20 °F (1966)
Degree Days  
Heating Degree Days 11    
Growing Degree Days 4 (Base 50)    
Moisture  
Dew Point 47 °F    
Average Humidity 72    
Maximum Humidity 90    
Minimum Humidity 51    
Precipitation  
Precipitation 0.01 in - - ()
Sea Level Pressure  
Sea Level Pressure 30.12 in    
Wind  
Wind Speed 3 mph (East)    
Max Wind Speed 8 mph    
Max Gust Speed -    
Visibility 10 miles    
Events Rain    
Averages and records for this station are not official NWS values.
T = Trace of Precipitation, MM = Missing Value Source: NWS Daily Summary

Daily Weather History Graph

Daily Weather History Graph

Search for Another Location

Airport or City:

Trip Planner

Search our weather history database for the weather conditions in past years. The results will help you decide how hot, cold, wet, or windy it might be!

Date:

Astronomy

Dec. 05, 2012 Rise Set
Actual Time 7:20 AM EST 5:11 PM EST
Civil Twilight 6:52 AM EST 5:39 PM EST
Nautical Twilight 6:20 AM EST 6:11 PM EST
Astronomical Twilight 5:49 AM EST 6:42 PM EST
Moon 11:49 PM EST (12/5) 11:52 AM EST (12/5)
Length of Visible Light 10h 47m
Length of Day
9h 50m
Waning Gibbous, 60% of the Moon is Illuminated
Dec 5
Waning Gibbous
Dec 6
Last Quarter
Dec 13
New
Dec 20
First Quarter
Dec 28
Full

Hourly Weather History & Observations

Time (EST) Temp. Dew Point Humidity Pressure Visibility Wind Dir Wind Speed Gust Speed Precip Events Conditions
12:53 AM 61.0 °F 50.0 °F 67% 30.10 in 10.0 mi SSW 6.9 mph - N/A   Overcast
1:53 AM 60.1 °F 50.0 °F 69% 30.10 in 10.0 mi South 3.5 mph - N/A   Overcast
2:53 AM 57.9 °F 50.0 °F 75% 30.09 in 10.0 mi Calm Calm - N/A   Overcast
3:53 AM 59.0 °F 50.0 °F 72% 30.09 in 10.0 mi WSW 3.5 mph - 0.00 in   Overcast
4:53 AM 57.9 °F 50.0 °F 75% 30.07 in 10.0 mi South 3.5 mph - 0.00 in   Partly Cloudy
5:53 AM 57.0 °F 50.0 °F 77% 30.08 in 10.0 mi Calm Calm - 0.00 in   Overcast
6:53 AM 57.0 °F 51.1 °F 81% 30.09 in 10.0 mi Calm Calm - 0.00 in Rain Light Rain
7:53 AM 57.0 °F 51.1 °F 81% 30.11 in 10.0 mi Calm Calm - 0.00 in   Overcast
9:53 AM 55.9 °F 53.1 °F 90% 30.14 in 10.0 mi Calm Calm - 0.00 in Rain Light Rain
10:53 AM 59.0 °F 54.0 °F 83% 30.14 in 10.0 mi NNE 4.6 mph - 0.00 in Rain Light Rain
11:53 AM 62.1 °F 54.0 °F 75% 30.14 in 10.0 mi NNE 8.1 mph - 0.00 in   Overcast
12:53 PM 61.0 °F 54.0 °F 78% 30.12 in 10.0 mi ENE 3.5 mph - 0.01 in Rain Light Rain
1:53 PM 61.0 °F 53.1 °F 75% 30.10 in 10.0 mi NE 3.5 mph - 0.00 in Rain Light Rain
2:53 PM 61.0 °F 52.0 °F 72% 30.09 in 10.0 mi East 4.6 mph - 0.00 in   Overcast
3:53 PM 60.1 °F 48.9 °F 67% 30.10 in 10.0 mi East 3.5 mph - N/A   Mostly Cloudy
4:53 PM 57.9 °F 50.0 °F 75% 30.12 in 10.0 mi ESE 3.5 mph - N/A   Overcast
5:53 PM 55.9 °F 43.0 °F 62% 30.14 in 10.0 mi Calm Calm - N/A   Mostly Cloudy
6:53 PM 54.0 °F 42.1 °F 64% 30.16 in 10.0 mi NE 3.5 mph - N/A   Overcast
7:53 PM 54.0 °F 36.0 °F 51% 30.16 in 10.0 mi ENE 4.6 mph - N/A   Clear
8:53 PM 50.0 °F 37.9 °F 63% 30.17 in 10.0 mi Calm Calm - N/A   Clear
9:53 PM 46.9 °F 37.9 °F 71% 30.17 in 10.0 mi North 3.5 mph - N/A   Clear
10:53 PM 46.9 °F 35.1 °F 63% 30.17 in 10.0 mi Calm Calm - N/A   Clear
11:53 PM 43.0 °F 36.0 °F 76% 30.17 in 10.0 mi Calm Calm - N/A   Clear